Lexington Weather

Lexington, Massachusetts, USA

73°F
9/22/2021 1:48pm 
  • Lexington Conditions: Overcast
  • Temperature: 73.0°F / 22.8°CColder 2.2°F than last hour.
  • Dew Point: 68.2°FDecreased 0.3°Fsince last hour.
  • Relative Humidity: 85%Increased 5.0% since last hour.
  • Wind: Wind from W W 1 mph, 10-min avg: 3 mph, gust: 12 mph
  • Barometer: 30.10 in Steady
  • Visibility: 10 miles
  • Rain Today: 0.00 in
  •   

Regional Weather Roundup
for Boston / Norton, MA

        
000
ASUS41 KBOX 180304
RWRBOX

REGIONAL WEATHER ROUNDUP
NATIONAL WEATHER SERVICE BOSTON/NORTON MA
1100 PM EDT FRI SEP 17 2021

NOTE:  "FAIR" INDICATES FEW OR NO CLOUDS BELOW 12,000 FEET WITH NO 
SIGNIFICANT WEATHER AND/OR OBSTRUCTIONS TO VISIBILITY.

MAZALL-180400-
EASTERN MASSACHUSETTS
  
CITY           SKY/WX    TMP DP  RH WIND       PRES   REMARKS
BOSTON         DRZL/FOG  66  63  90 N7        30.19F VSB 1/2          
BEVERLY        FOG       64  64 100 N3        30.18F VSB 1/2          
LAWRENCE       FOG       63  63 100 CALM      30.21F VSB 1            
BEDFORD        CLOUDY    63  63 100 CALM      30.18F FOG              
BLUE HILL      NOT AVBL                                               
NORWOOD        FOG       65  63  93 N3        30.18F VSB 1            
MARSHFIELD     FOG       66  66 100 N3        30.17F VSB 1/4          
PLYMOUTH       FOG       66  65  96 N9        30.16F VSB 3/4          
TAUNTON        CLOUDY    64  63  96 VRB6      30.16F FOG              
NEW BEDFORD    FOG       67  66  97 N6        30.14F VSB 1            
$$

MAZALL-180400-
CAPE COD AND THE ISLANDS
  
CITY           SKY/WX    TMP DP  RH WIND       PRES   REMARKS
FALMOUTH       NOT AVBL                                               
HYANNIS        CLOUDY    69  69 100 E5        30.13F                  
CHATHAM        FOG       68  68 100 NE5       30.14F VSB 1            
PROVINCETOWN   FOG       66  66 100 NE5       30.16F VSB 3/4          
NANTUCKET      MOCLDY    71  68  90 E10       30.11F                  
MARTHAS VNYRD  CLOUDY    70  70 100 N10       30.13F FOG              
$$
 
MAZALL-180400-
CENTRAL AND WESTERN MASSACHUSETTS
  
CITY           SKY/WX    TMP DP  RH WIND       PRES   REMARKS
WORCESTER      FOG       63  63 100 NE6       30.21F VSB 1/4          
FITCHBURG      CLOUDY    64  63  96 CALM      30.20F FOG              
ORANGE         CLOUDY    66  63  90 CALM      30.20F                  
SPRINGFIELD    CLOUDY    66  65  98 CALM      30.17F                  
WESTFIELD      CLOUDY    68  66  93 CALM      30.18F                  
NORTH ADAMS    PTCLDY    67  64  90 E5        30.18F                  
PITTSFIELD     CLOUDY    66  63  90 NE3       30.18F                  
$$
 
RIZALL-180400-
RHODE ISLAND
  
CITY           SKY/WX    TMP DP  RH WIND       PRES   REMARKS
PROVIDENCE     CLOUDY    66  64  93 N9        30.17F                  
NEWPORT        FOG       64  64 100 N6        30.15F VSB 3/4          
BLOCK ISLAND   CLOUDY    65  64  97 NE14      30.15F FOG              
SMITHFIELD     LGT RAIN  63  63 100 N7        30.19F VSB 1/4          
WESTERLY       CLOUDY    64  64 100 NE8       30.15F                  
$$
 
CTZALL-180400-
CONNECTICUT
  
CITY           SKY/WX    TMP DP  RH WIND       PRES   REMARKS
BRADLEY INTL   CLOUDY    67  65  93 NE6       30.17F                  
HARTFORD       CLOUDY    69  65  86 NE6       30.16F                  
BRIDGEPORT     MOCLDY    71  67  87 NE13      30.14F                  
DANBURY        CLOUDY    70  66  87 NE5       30.17F                  
GROTON         CLOUDY    68  65  90 NE9       30.14F                  
NEW HAVEN      PTCLDY    71  68  90 N9        30.14F                  
CHESTER        CLOUDY    68  66  94 N7        30.16F                  
MERIDEN        CLOUDY    69  64  84 NE3       30.16F                  
WILLIMANTIC    CLOUDY    66  64  93 N7        30.18F                  
OXFORD         CLOUDY    66  64  94 E9        30.18F                  
$$

MEZ002-015-021-024-NHZ003-005-008-011-012-014-VTZ005-008-180400-
NORTHERN NEW ENGLAND
  
CITY           SKY/WX    TMP DP  RH WIND       PRES   REMARKS
PORTLAND ME    CLOUDY    61  61 100 CALM      30.20F                  
BANGOR ME      CLOUDY    64  59  83 S5        30.20F                  
CONCORD NH     CLOUDY    64  63  96 CALM      30.19F                  
MANCHESTER NH  CLOUDY    66  60  81 CALM      30.18F                  
NASHUA NH      CLOUDY    65  65 100 CALM      30.20F                  
PORTSMOUTH NH  FOG       63  61  92 CALM      30.20  VSB 1/2          
JAFFREY NH     FOG       64  64 100 CALM      30.21F VSB 3/4          
KEENE NH       CLOUDY    66  64  93 N3        30.19F                  
BURLINGTON VT  CLEAR     69  64  84 S6        30.11F                  
MT. WASHINGTON FOG       50  50 100 SW23G33     N/A  VSB 0            
$$

NYZ052-076-180400-
EASTERN NEW YORK
  
CITY           SKY/WX    TMP DP  RH WIND       PRES   REMARKS
ALBANY         CLEAR     64  64 100 CALM      30.15F                  
NEW YORK CITY  CLOUDY    73  68  84 NE10      30.12F                  
$$
 
ANZALL-180400-
MARINE OBSERVATIONS
  
STATION/POSITION TIME  TEMP    WIND        PRES    VSBY  WAVE
                       AIR SEA DIR/SP/G                  HT/PER
                 (UTC) (F)     (DEG/KT/KT) (MB)    (MI)  (FT/S)
BOSTON BUOY      0240      67   20/  8/ 10 1022.0F
BUZZARDS BAY     0200           20/ 16/ 17 1021.7F
NANTUCKET SOUND  0240   70 72   60/ 10/ 14 1020.3F
MASS BAY-STELLWA 0204   65      50/  8/ 10 1021.8F  1 7/8  2/ 4
ISLE OF SHOALS   0200   63      40/  7/  9 1022.1F
S OF BLOCK IS    0226      71                N/A           6/ 8
$$

......................KEY.........................
  SKY/WX - SKY CONDITION/PRESENT WEATHER
  TMP    - TEMPERATURE IN FAHRENHEIT
  DWPT   - DEWPOINT IN FAHRENHEIT
  RH     - RELATIVE HUMIDITY IN PERCENT
  WIND   - DIRECTION AND SPEED IN MPH
  PRES   - MEAN SEA LEVEL PRESSURE IN INCHES OF HG
  WCI    - WIND CHILL INDEX
  VSB    - VISIBILITY IN MILES
  HX     - HEAT INDEX
  TC     - TEMPERATURE IN CELSIUS
  VRB    - VARIABLE WIND DIRECTION
  N/A    - NOT AVAILABLE
  
      

Other recent Regional Weather Roundups

Wed Sep 22, 1:04pm

Wed Sep 22, 12:05pm

Wed Sep 22, 11:04am

Wed Sep 22, 10:04am

Wed Sep 22, 9:04am

Wed Sep 22, 8:04am

Wed Sep 22, 7:04am

Wed Sep 22, 6:04am

Wed Sep 22, 5:04am

Wed Sep 22, 4:04am

Wed Sep 22, 3:04am

Wed Sep 22, 2:04am

Wed Sep 22, 1:04am

Wed Sep 22, 12:04am

Tue Sep 21, 11:04pm

Tue Sep 21, 10:04pm

Tue Sep 21, 9:04pm

Tue Sep 21, 8:04pm

Tue Sep 21, 7:04pm

Tue Sep 21, 6:04pm

Tue Sep 21, 5:04pm

Tue Sep 21, 4:04pm

Tue Sep 21, 3:04pm

Tue Sep 21, 2:04pm

Tue Sep 21, 1:04pm

Tue Sep 21, 12:04pm

Tue Sep 21, 11:04am

Tue Sep 21, 10:04am

Tue Sep 21, 9:04am

Tue Sep 21, 8:04am

Tue Sep 21, 7:04am

Tue Sep 21, 6:04am

Tue Sep 21, 5:04am

Tue Sep 21, 4:04am

Tue Sep 21, 3:04am

Tue Sep 21, 2:04am

Tue Sep 21, 1:04am

Tue Sep 21, 12:04am

Mon Sep 20, 11:04pm

Mon Sep 20, 10:04pm

Mon Sep 20, 9:04pm

Mon Sep 20, 8:04pm

Mon Sep 20, 7:04pm

Mon Sep 20, 6:04pm

Mon Sep 20, 5:04pm

Mon Sep 20, 4:04pm

Mon Sep 20, 3:04pm

Mon Sep 20, 2:04pm

Mon Sep 20, 1:04pm

Mon Sep 20, 12:04pm

Mon Sep 20, 11:04am

Mon Sep 20, 10:04am

Mon Sep 20, 9:04am

Mon Sep 20, 7:04am

Mon Sep 20, 6:04am

Mon Sep 20, 5:04am

Mon Sep 20, 4:04am

Mon Sep 20, 3:04am

Mon Sep 20, 2:04am

Mon Sep 20, 1:04am

Mon Sep 20, 12:04am

Sun Sep 19, 11:04pm

Sun Sep 19, 10:04pm

Sun Sep 19, 9:04pm

Sun Sep 19, 8:04pm

Sun Sep 19, 7:04pm

Sun Sep 19, 6:04pm

Sun Sep 19, 5:04pm

Sun Sep 19, 4:04pm

Sun Sep 19, 3:04pm

Sun Sep 19, 2:05pm

Sun Sep 19, 1:04pm

Sun Sep 19, 12:04pm

Sun Sep 19, 11:04am

Sun Sep 19, 10:05am

Sun Sep 19, 9:04am

Sun Sep 19, 8:04am

Sun Sep 19, 7:04am

Sun Sep 19, 6:04am

Sun Sep 19, 5:04am

Sun Sep 19, 4:04am

Sun Sep 19, 3:04am

Sun Sep 19, 2:04am

Sun Sep 19, 1:04am

Sun Sep 19, 12:04am

Sat Sep 18, 11:05pm

Sat Sep 18, 10:04pm

Sat Sep 18, 9:04pm

Sat Sep 18, 8:04pm

Sat Sep 18, 7:04pm

Sat Sep 18, 6:04pm

Sat Sep 18, 5:04pm

Sat Sep 18, 4:04pm

Sat Sep 18, 3:04pm

Sat Sep 18, 2:04pm

Sat Sep 18, 1:04pm

Sat Sep 18, 12:04pm

Sat Sep 18, 11:04am

Sat Sep 18, 10:04am

Sat Sep 18, 9:04am

Sat Sep 18, 8:04am

Sat Sep 18, 7:04am

Sat Sep 18, 6:04am

Sat Sep 18, 5:04am

Sat Sep 18, 4:04am

Sat Sep 18, 3:04am

Sat Sep 18, 2:04am

Sat Sep 18, 1:04am

Sat Sep 18, 12:04am

Fri Sep 17, 10:04pm

Fri Sep 17, 9:04pm

Fri Sep 17, 8:04pm

Fri Sep 17, 7:04pm

Fri Sep 17, 6:04pm

Fri Sep 17, 5:04pm

Fri Sep 17, 4:04pm

Fri Sep 17, 3:04pm

Fri Sep 17, 2:04pm

Fri Sep 17, 1:04pm

Fri Sep 17, 12:05pm

Fri Sep 17, 11:04am

Fri Sep 17, 10:04am

Fri Sep 17, 9:04am

Fri Sep 17, 8:04am

Fri Sep 17, 7:04am

Fri Sep 17, 6:04am

Fri Sep 17, 5:04am

Fri Sep 17, 4:04am

Fri Sep 17, 3:04am

Fri Sep 17, 2:04am

Fri Sep 17, 1:04am

Fri Sep 17, 12:04am

Thu Sep 16, 11:04pm

Thu Sep 16, 10:04pm

Thu Sep 16, 9:04pm

Thu Sep 16, 8:04pm

Thu Sep 16, 7:04pm

Thu Sep 16, 6:04pm

Thu Sep 16, 5:04pm

Thu Sep 16, 4:04pm

Thu Sep 16, 3:04pm

Thu Sep 16, 2:04pm

Thu Sep 16, 1:05pm

Thu Sep 16, 12:04pm

Thu Sep 16, 11:05am

Thu Sep 16, 10:05am

Thu Sep 16, 9:04am

Thu Sep 16, 8:04am

Thu Sep 16, 7:04am

Thu Sep 16, 6:04am

Thu Sep 16, 5:04am

Thu Sep 16, 4:04am

Thu Sep 16, 3:04am

Thu Sep 16, 2:04am

Thu Sep 16, 1:04am

Thu Sep 16, 12:04am

Wed Sep 15, 11:04pm

Wed Sep 15, 10:04pm

Wed Sep 15, 9:04pm

Wed Sep 15, 8:04pm

Wed Sep 15, 7:04pm

Wed Sep 15, 6:04pm

Wed Sep 15, 5:05pm

Wed Sep 15, 4:04pm

Wed Sep 15, 3:04pm

Wed Sep 15, 2:04pm

Meta data:

ID: 553d96f1-9e40-4952-85a1-7c219676d340
Link: https://api.weather.gov/products/553d96f1-9e40-4952-85a1-7c219676d340